Weather History for KAQP - November, 2014

Change the Weather History Date:

Friday, November 21, 2014

  Actual Average Record
Temperature  
Mean Temperature 21 °F -  
Max Temperature 37 °F 34 °F 62 °F (2012)
Min Temperature 5 °F 18 °F -4 °F (1996)
Degree Days  
Heating Degree Days 44    
Moisture  
Dew Point 18 °F    
Average Humidity 77    
Maximum Humidity 86    
Minimum Humidity 60    
Precipitation  
Precipitation 0.01 in - - ()
Sea Level Pressure  
Sea Level Pressure 29.94 in    
Wind  
Wind Speed 9 mph (South)    
Max Wind Speed 18 mph    
Max Gust Speed 24 mph    
Visibility 10 miles    
Events      
Averages and records for this station are not official NWS values.
T = Trace of Precipitation, MM = Missing Value Source: NWS Daily Summary

Daily Weather History Graph

Daily Weather History Graph

Search for Another Location

Airport or City:

Trip Planner

Search our weather history database for the weather conditions in past years. The results will help you decide how hot, cold, wet, or windy it might be!

Date:

Astronomy

Nov. 21, 2014 Rise Set
Actual Time 7:30 AM CST 4:49 PM CST
Civil Twilight 6:57 AM CST 5:21 PM CST
Nautical Twilight 6:21 AM CST 5:57 PM CST
Astronomical Twilight 5:46 AM CST 6:32 PM CST
Moon 6:23 AM CST (11/21) 4:37 PM CST (11/21)
Length of Visible Light 10h 23m
Length of Day
9h 18m
Waning Crescent, 1% of the Moon is Illuminated
Nov 21
Waning Crescent
Nov 22
New
Nov 29
First Quarter
Dec 6
Full
Dec 14
Last Quarter

Hourly Weather History & Observations

Time (CST) Temp. Windchill Dew Point Humidity Pressure Visibility Wind Dir Wind Speed Gust Speed Precip Events Conditions
12:15 AM 5.0 °F -5.6 °F 1.4 °F 85% 30.18 in 10.0 mi SSE 5.8 mph - N/A   Clear
12:35 AM 5.0 °F -6.9 °F 1.4 °F 85% 30.17 in 10.0 mi SSE 6.9 mph - N/A   Clear
12:54 AM 5.0 °F -5.6 °F 1.4 °F 85% 30.17 in 10.0 mi SSE 5.8 mph - N/A   Clear
1:14 AM 6.8 °F -3.5 °F 1.4 °F 79% 30.16 in 10.0 mi SSE 5.8 mph - N/A   Clear
1:34 AM 6.8 °F -2.0 °F 1.4 °F 79% 30.16 in 10.0 mi SSE 4.6 mph - N/A   Clear
1:55 AM 6.8 °F -2.0 °F 1.4 °F 79% 30.16 in 10.0 mi SE 4.6 mph - N/A   Clear
2:15 AM 6.8 °F -2.0 °F 1.4 °F 79% 30.15 in 10.0 mi SE 4.6 mph - N/A   Clear
2:35 AM 5.0 °F -8.1 °F 1.4 °F 85% 30.15 in 10.0 mi SE 8.1 mph - N/A   Clear
2:54 AM 6.8 °F -6.9 °F 1.4 °F 79% 30.13 in 10.0 mi SE 9.2 mph - N/A   Clear
3:14 AM 6.8 °F -5.9 °F 1.4 °F 79% 30.12 in 10.0 mi SE 8.1 mph - N/A   Clear
3:34 AM 6.8 °F -5.9 °F 3.2 °F 85% 30.11 in 10.0 mi SE 8.1 mph - N/A   Clear
3:54 AM 8.6 °F -3.7 °F 3.2 °F 79% 30.10 in 10.0 mi SE 8.1 mph - N/A   Clear
4:14 AM 8.6 °F -5.5 °F 5.0 °F 85% 30.09 in 10.0 mi SE 10.4 mph - N/A   Clear
4:35 AM 10.4 °F -3.3 °F 6.8 °F 85% 30.08 in 10.0 mi SE 10.4 mph - N/A   Clear
4:54 AM 10.4 °F -3.3 °F 6.8 °F 85% 30.08 in 10.0 mi SE 10.4 mph - N/A   Clear
5:14 AM 10.4 °F -4.8 °F 6.8 °F 85% 30.06 in 10.0 mi SSE 12.7 mph - N/A   Clear
5:34 AM 10.4 °F -3.3 °F 6.8 °F 85% 30.06 in 10.0 mi SSE 10.4 mph - N/A   Clear
5:54 AM 12.2 °F -1.0 °F 6.8 °F 79% 30.05 in 10.0 mi SSE 10.4 mph - N/A   Clear
6:15 AM 12.2 °F -1.8 °F 8.6 °F 85% 30.04 in 10.0 mi SE 11.5 mph - N/A   Clear
6:34 AM 12.2 °F -1.0 °F 8.6 °F 85% 30.03 in 10.0 mi SSE 10.4 mph - N/A   Clear
6:54 AM 15.8 °F 1.4 °F 10.4 °F 79% 30.02 in 10.0 mi SSE 13.8 mph - N/A   Clear
7:15 AM 15.8 °F 2.1 °F 10.4 °F 79% 30.01 in 10.0 mi SSE 12.7 mph 18.4 mph N/A   Scattered Clouds
7:34 AM 17.6 °F 2.7 °F 12.2 °F 79% 30.00 in 10.0 mi SSE 16.1 mph 23.0 mph N/A   Scattered Clouds
7:54 AM 17.6 °F 2.7 °F 12.2 °F 79% 30.00 in 10.0 mi SSE 16.1 mph - N/A   Scattered Clouds
8:14 AM 19.4 °F 6.0 °F 12.2 °F 74% 29.99 in 10.0 mi South 13.8 mph 19.6 mph N/A   Scattered Clouds
8:35 AM 19.4 °F 6.0 °F 14.0 °F 80% 29.99 in 10.0 mi SSE 13.8 mph - N/A   Scattered Clouds
8:54 AM 21.2 °F 7.8 °F 15.8 °F 80% 29.98 in 10.0 mi SSE 15.0 mph 19.6 mph N/A   Clear
9:14 AM 21.2 °F 9.5 °F 15.8 °F 80% 29.98 in 10.0 mi South 11.5 mph 18.4 mph N/A   Clear
9:34 AM 23.0 °F 12.4 °F 15.8 °F 74% 29.98 in 10.0 mi South 10.4 mph - N/A   Clear
9:54 AM 24.8 °F 12.9 °F 17.6 °F 74% 29.97 in 10.0 mi South 13.8 mph - N/A   Clear
10:14 AM 26.6 °F 16.8 °F 17.6 °F 69% 29.97 in 10.0 mi South 10.4 mph - N/A   Clear
10:35 AM 28.4 °F 18.0 °F 17.6 °F 64% 29.96 in 10.0 mi South 12.7 mph - N/A   Clear
10:54 AM 28.4 °F 15.8 °F 19.4 °F 69% 29.96 in 10.0 mi South 18.4 mph 24.2 mph N/A   Clear
11:14 AM 30.2 °F 18.9 °F 19.4 °F 64% 29.96 in 10.0 mi South 16.1 mph 24.2 mph N/A   Clear
11:34 AM 28.4 °F 17.5 °F 19.4 °F 69% 29.95 in 10.0 mi South 13.8 mph 20.7 mph N/A   Clear
11:54 AM 30.2 °F 20.8 °F 21.2 °F 69% 29.94 in 10.0 mi South 11.5 mph 17.3 mph N/A   Clear
12:14 PM 30.2 °F 22.6 °F 21.2 °F 69% 29.92 in 10.0 mi South 8.1 mph 17.3 mph N/A   Clear
12:34 PM 30.2 °F 21.9 °F 21.2 °F 69% 29.91 in 10.0 mi South 9.2 mph - N/A   Clear
12:54 PM 33.8 °F 24.8 °F 23.0 °F 65% 29.90 in 10.0 mi South 12.7 mph - N/A   Clear
1:15 PM 33.8 °F 24.3 °F 24.8 °F 70% 29.89 in 10.0 mi South 13.8 mph 19.6 mph N/A   Clear
1:35 PM 35.6 °F 28.0 °F 24.8 °F 65% 29.88 in 10.0 mi South 10.4 mph 17.3 mph N/A   Clear
1:54 PM 35.6 °F 26.6 °F 24.8 °F 65% 29.87 in 10.0 mi SSW 13.8 mph 20.7 mph N/A   Clear
2:14 PM 37.4 °F 28.5 °F 24.8 °F 60% 29.87 in 10.0 mi South 15.0 mph 18.4 mph N/A   Clear
2:34 PM 37.4 °F 30.8 °F 26.6 °F 65% 29.86 in 10.0 mi South 9.2 mph 19.6 mph N/A   Clear
2:55 PM 35.6 °F 28.6 °F 26.6 °F 70% 29.86 in 10.0 mi South 9.2 mph - N/A   Clear
3:14 PM 35.6 °F 28.0 °F 26.6 °F 70% 29.87 in 10.0 mi South 10.4 mph 17.3 mph 0.01 in   Clear
3:35 PM 35.6 °F 29.9 °F 26.6 °F 70% 29.87 in 10.0 mi South 6.9 mph - 0.01 in   Clear
3:54 PM 33.8 °F 25.3 °F 26.6 °F 75% 29.86 in 10.0 mi South 11.5 mph 16.1 mph 0.01 in   Clear
4:14 PM 33.8 °F 26.4 °F 26.6 °F 75% 29.86 in 10.0 mi South 9.2 mph - N/A   Clear
4:34 PM 33.8 °F 27.0 °F 26.6 °F 75% 29.86 in 10.0 mi SSE 8.1 mph - N/A   Clear
4:54 PM 33.8 °F 27.7 °F 26.6 °F 75% 29.85 in 10.0 mi SSE 6.9 mph - N/A   Clear
5:14 PM 32.0 °F 23.0 °F 26.6 °F 80% 29.85 in 10.0 mi South 11.5 mph - N/A   Clear
5:34 PM 33.8 °F 26.4 °F 26.6 °F 75% 29.84 in 10.0 mi South 9.2 mph - N/A   Clear
5:54 PM 32.0 °F 24.2 °F 26.6 °F 80% 29.84 in 10.0 mi SSE 9.2 mph - N/A   Clear
6:15 PM 30.2 °F 22.6 °F 26.6 °F 86% 29.84 in 10.0 mi SSE 8.1 mph - N/A   Clear
6:35 PM 30.2 °F 22.6 °F 26.6 °F 86% 29.83 in 10.0 mi South 8.1 mph - N/A   Clear
6:54 PM 32.0 °F 24.2 °F 26.6 °F 80% 29.83 in 10.0 mi South 9.2 mph - N/A   Clear
7:14 PM 32.0 °F 23.6 °F 26.6 °F 80% 29.82 in 10.0 mi South 10.4 mph - N/A   Clear
7:34 PM 32.0 °F 24.2 °F 26.6 °F 80% 29.82 in 10.0 mi South 9.2 mph - N/A   Clear
7:54 PM 32.0 °F 23.0 °F 26.6 °F 80% 29.80 in 10.0 mi South 11.5 mph - N/A   Clear
8:14 PM 33.8 °F 27.7 °F 26.6 °F 75% 29.81 in 10.0 mi South 6.9 mph - N/A   Clear
8:35 PM 33.8 °F 28.6 °F 26.6 °F 75% 29.81 in 10.0 mi South 5.8 mph - N/A   Clear
8:54 PM 32.0 °F 26.4 °F 26.6 °F 80% 29.80 in 10.0 mi South 5.8 mph - N/A   Clear
9:14 PM 32.0 °F 24.8 °F 26.6 °F 80% 29.80 in 10.0 mi South 8.1 mph - N/A   Clear
9:35 PM 33.8 °F 26.4 °F 28.4 °F 81% 29.79 in 10.0 mi South 9.2 mph - N/A   Scattered Clouds
9:54 PM 35.6 °F 28.0 °F 28.4 °F 75% 29.78 in 10.0 mi SSW 10.4 mph - N/A   Scattered Clouds
10:14 PM 35.6 °F 28.6 °F 28.4 °F 75% 29.78 in 10.0 mi SSW 9.2 mph - N/A   Clear
10:35 PM 35.6 °F 29.9 °F 28.4 °F 75% 29.78 in 10.0 mi SSW 6.9 mph - N/A   Scattered Clouds
10:54 PM 35.6 °F 30.7 °F 28.4 °F 75% 29.78 in 10.0 mi SSW 5.8 mph - N/A   Clear
11:14 PM 35.6 °F 28.0 °F 30.2 °F 81% 29.77 in 10.0 mi SW 10.4 mph - N/A   Clear
11:34 PM 37.4 °F 29.8 °F 30.2 °F 75% 29.76 in 10.0 mi SW 11.5 mph - N/A   Scattered Clouds
11:55 PM 37.4 °F 31.4 °F 30.2 °F 75% 29.77 in 10.0 mi SW 8.1 mph - N/A   Scattered Clouds